This demonstration page uses our WeatherBlox Daily Observations layout. Learn more.

Hourly Observations for March 14, 2016

Temp ( °F °C ) Dew Point ( °F °C ) Humidity (%) Winds ( mph kmh ) Pressure ( in mb ) Visibility ( mi km ) Precip ( " mm )
12:15 am 00:15 Clear 48 8.9 42 5.7 81 81 SW 3 6 29.71 1006 10 16.0934 0 0
12:35 am 00:35 Clear 47 8.5 43 6.1 85 85 Calm 29.71 1006 10 16.0934 0 0
12:55 am 00:55 Clear 45 7 41 5 87 87 Calm 29.71 1006 10 16.0934 0 0
1:15 am 01:15 Clear 43 6 39 4 87 87 Calm 29.74 1007 10 16.0934 0 0
1:35 am 01:35 Clear 40 4.5 37 2.9 89 89 W 5 7 29.74 1007 10 16.0934 0 0
1:55 am 01:55 Clear 42 5.3 39 4 91 91 WNW 6 9 29.74 1007 10 16.0934 0 0
2:15 am 02:15 Clear 41 4.8 38 3.2 90 90 WNW 6 9 29.74 1007 10 16.0934 0 0
2:35 am 02:35 Clear 42 5.8 38 3.2 84 84 WNW 5 7 29.74 1007 10 16.0934 0 0
2:55 am 02:55 Clear 40 4.5 36 2.1 85 85 Calm 29.74 1007 10 16.0934 0 0
3:15 am 03:15 Clear 43 6 36 2.2 77 77 Calm 29.74 1007 10 16.0934 0 0
3:35 am 03:35 Clear 42 5.5 35 1.4 75 75 WNW 3 6 29.74 1007 10 16.0934 0 0
3:55 am 03:55 Clear 42 5.4 34 1 74 74 NW 3 6 29.74 1007 10 16.0934 0 0
4:15 am 04:15 Clear 40 4.5 33 0.8 77 77 NW 5 7 29.74 1007 10 16.0934 0 0
4:35 am 04:35 Clear 40 4.5 33 0.5 76 76 WNW 5 7 29.74 1007 10 16.0934 0 0
4:55 am 04:55 Clear 42 5.3 33 0.4 71 71 NW 5 7 29.74 1007 10 16.0934 0 0
5:15 am 05:15 Clear 38 3.6 32 0 78 78 Calm 29.71 1006 10 16.0934 0 0
5:35 am 05:35 Clear 40 4.3 32 0.2 75 75 Calm 29.74 1007 10 16.0934 0 0
5:55 am 05:55 Clear 40 4.6 33 0.3 74 74 Calm 29.74 1007 10 16.0934 0 0
6:15 am 06:15 Clear 39 4 32 0 75 75 Calm 29.71 1006 10 16.0934 0 0
6:35 am 06:35 Clear 36 2.4 31 -0.5 81 81 Calm 29.77 1008 10 16.0934 0 0
6:55 am 06:55 Clear 37 2.8 32 -0.1 81 81 Calm 29.71 1006 10 16.0934 0 0
7:15 am 07:15 Clear 37 2.7 32 -0.1 82 82 WNW 3 6 29.74 1007 10 16.0934 0 0
7:35 am 07:35 Clear 37 2.6 32 0 83 83 Calm 29.74 1007 10 16.0934 0 0
7:55 am 07:55 Sunny 36 2.4 31 -0.4 82 82 Calm 29.74 1007 10 16.0934 0 0
8:15 am 08:15 Sunny 36 2.4 32 -0.2 83 83 WNW 3 6 29.77 1008 10 16.0934 0 0
8:35 am 08:35 Sunny 40 4.3 33 0.6 77 77 WNW 3 6 29.74 1007 10 16.0934 0 0
8:55 am 08:55 Sunny 43 6.2 35 1.6 73 73 W 3 6 29.74 1007 10 16.0934 0 0
9:15 am 09:15 Sunny 46 7.6 36 2.4 70 70 Calm 29.71 1006 10 16.0934 0 0
9:35 am 09:35 Sunny 48 8.8 38 3.1 68 68 Calm 29.71 1006 10 16.0934 0 0
9:55 am 09:55 Sunny 51 10.4 39 3.7 63 63 Calm 29.68 1005 10 16.0934 0 0
10:15 am 10:15 Sunny 53 11.9 40 4.5 61 61 Calm 29.68 1005 10 16.0934 0 0
10:35 am 10:35 Sunny 58 14.2 39 4.1 51 51 Calm 29.65 1004 10 16.0934 0 0
10:55 am 10:55 Partly Cloudy 59 15.1 40 4.3 49 49 Calm 29.65 1004 10 16.0934 0 0
11:15 am 11:15 Partly Cloudy 61 16 39 3.8 44 44 Calm 29.62 1003 10 16.0934 0 0
11:35 am 11:35 Partly Cloudy 62 16.6 39 4 43 43 Calm 29.59 1002 10 16.0934 0 0
11:55 am 11:55 Sunny 65 18.5 37 3 36 36 Calm 29.59 1002 10 16.0934 0 0
12:15 pm 12:15 Sunny 68 20.2 37 2.8 32 32 S 6 9 29.56 1001 10 16.0934 0 0
12:35 pm 12:35 Sunny 71 21.8 37 2.5 28 28 S 8 13 29.53 1000 10 16.0934 0 0
12:55 pm 12:55 Sunny 73 22.6 35 1.4 25 25 S 9 15 29.53 1000 10 16.0934 0 0
1:15 pm 13:15 Sunny 72 22.2 34 0.9 24 24 SSW 13 20 29.53 1000 10 16.0934 0 0
1:35 pm 13:35 Partly Cloudy 72 22.2 33 0.8 24 24 SSW 17 28 29.53 1000 10 16.0934 0 0
1:55 pm 13:55 Partly Cloudy 72 22 35 1.7 26 26 SSW 12 19 29.5 999 10 16.0934 0 0
2:15 pm 14:15 Sunny 72 22.1 34 1.2 25 25 S 14 22 29.5 999 10 16.0934 0 0
2:35 pm 14:35 Sunny 71 21.9 35 1.6 26 26 SSW 13 20 29.5 999 10 16.0934 0 0
2:55 pm 14:55 Mostly Cloudy 71 21.8 36 2 27 27 S 10 17 29.47 998 10 16.0934 0 0
3:15 pm 15:15 Partly Cloudy 72 22.1 34 1 25 25 S 13 20 29.47 998 10 16.0934 0 0
3:35 pm 15:35 Partly Cloudy 73 22.9 32 0.2 22 22 SSE 13 20 29.41 996 10 16.0934 0 0
3:55 pm 15:55 Partly Cloudy 75 23.9 34 1 22 22 S 12 19 29.41 996 10 16.0934 0 0
4:15 pm 16:15 Partly Cloudy 73 22.8 33 0.4 23 23 S 10 17 29.41 996 10 16.0934 0 0
4:35 pm 16:35 Mostly Cloudy 74 23.5 33 0.5 22 22 SSE 18 30 29.38 995 10 16.0934 0 0
4:55 pm 16:55 Mostly Cloudy 74 23.5 31 -0.3 21 21 S 13 20 29.38 995 10 16.0934 0 0
5:15 pm 17:15 Partly Cloudy 74 23.6 31 -0.5 20 20 S 15 24 29.38 995 10 16.0934 0 0
5:35 pm 17:35 Partly Cloudy 74 23.2 30 -1 20 20 S 14 22 29.35 994 10 16.0934 0 0
5:55 pm 17:55 Partly Cloudy 75 23.8 30 -1.3 19 19 S 16 26 29.35 994 10 16.0934 0 0
6:15 pm 18:15 Partly Cloudy 73 22.7 28 -2 19 19 S 14 22 29.35 994 10 16.0934 0 0
6:35 pm 18:35 Mostly Cloudy 72 22.1 29 -1.6 21 21 S 13 20 29.35 994 10 16.0934 0 0
6:55 pm 18:55 Cloudy 70 21.1 30 -0.9 23 23 WSW 9 15 29.41 996 10 16.0934 0 0
7:15 pm 19:15 Mostly Cloudy with Light Rain 64 17.9 40 4.4 41 41 SSW 3 6 29.44 997 10 16.0934 0 0
7:35 pm 19:35 Partly Cloudy 64 17.6 40 4.4 42 42 SSE 8 13 29.41 996 10 16.0934 0 0
7:55 pm 19:55 Partly Cloudy 61 16.1 41 4.8 47 47 ESE 9 15 29.41 996 10 16.0934 0 0
8:15 pm 20:15 Mostly Cloudy 61 15.9 40 4.5 47 47 NW 14 22 29.47 998 10 16.0934 0 0
8:35 pm 20:35 Mostly Cloudy 63 17.1 38 3.6 41 41 NNE 16 26 29.47 998 10 16.0934 0 0
8:55 pm 20:55 Partly Cloudy 60 15.8 40 4.3 47 47 NNE 10 17 29.47 998 10 16.0934 0 0
9:15 pm 21:15 Clear 58 14.5 42 5.5 55 55 NNW 16 26 29.53 1000 10 16.0934 0 0
9:35 pm 21:35 Clear 53 11.8 43 6 68 68 N 16 26 29.59 1002 10 16.0934 0 0
9:55 pm 21:55 Clear 52 11 43 6.1 72 72 N 14 22 29.59 1002 10 16.0934 0 0
10:15 pm 22:15 Clear 51 10.5 42 5.7 72 72 NNE 13 20 29.59 1002 10 16.0934 0 0
10:35 pm 22:35 Clear 50 10.1 42 5.5 73 73 N 8 13 29.59 1002 10 16.0934 0 0
10:55 pm 22:55 Clear 49 9.2 42 5.3 77 77 NNE 7 11 29.59 1002 10 16.0934 0 0
11:15 pm 23:15 Clear 49 9.5 42 5.3 75 75 Calm 29.62 1003 10 16.0934 0 0
11:35 pm 23:35 Clear 48 8.8 42 5.3 79 79 Calm 29.65 1004 10 16.0934 0 0
11:55 pm 23:55 Clear 48 8.8 42 5.3 79 79 Calm 29.65 1004 10 16.0934 0 0

Powered by AerisWeather